Tiempo cada hora Dalachow

Hoy, 4 Agosto, Miércoles

Tiempo Temperatura Precipitaciones Viento Presión Humedad
00:00 +16°C° 0.3 mm 1 mps 742 mmHg 79%
01:00 +16°C° 0.3 mm 1 mps 742 mmHg 82%
02:00 +16°C° 0.2 mm 1 mps 742 mmHg 83%
03:00 +16°C° 0.2 mm 1 mps 742 mmHg 84%
04:00 +16°C° 0.2 mm 2 mps 742 mmHg 86%
05:00 +16°C° 0.2 mm 2 mps 742 mmHg 86%
06:00 +16°C° 0.2 mm 2 mps 742 mmHg 87%
07:00 +16°C° 0.2 mm 2 mps 743 mmHg 88%
08:00 +16°C° 0.5 mm 2 mps 743 mmHg 89%
09:00 +16°C° 0.5 mm 2 mps 743 mmHg 90%
10:00 +16°C° 0.5 mm 2 mps 743 mmHg 91%
11:00 +16°C° 0.1 mm 2 mps 743 mmHg 88%
12:00 +17°C° 0.1 mm 2 mps 743 mmHg 84%
13:00 +17°C° 0.1 mm 2 mps 743 mmHg 81%
14:00 +19°C° 0 mm 2 mps 743 mmHg 75%
15:00 +20°C° 0 mm 2 mps 742 mmHg 69%
16:00 +21°C° 0 mm 3 mps 742 mmHg 62%
17:00 +20°C° 0 mm 2 mps 742 mmHg 66%
18:00 +19°C° 0 mm 2 mps 742 mmHg 69%
19:00 +19°C° 0 mm 2 mps 742 mmHg 72%
20:00 +18°C° 0 mm 2 mps 742 mmHg 76%
21:00 +17°C° 0 mm 2 mps 742 mmHg 79%
22:00 +16°C° 0 mm 2 mps 742 mmHg 82%
23:00 +16°C° 0 mm 2 mps 742 mmHg 84%

Mañana, 5 Agosto, Jueves

Tiempo Temperatura Precipitaciones Viento Presión Humedad
00:00 +16°C° 0 mm 2 mps 742 mmHg 85%
01:00 +15°C° 0 mm 2 mps 741 mmHg 87%
02:00 +15°C° 0 mm 2 mps 741 mmHg 88%
03:00 +15°C° 0 mm 2 mps 741 mmHg 90%
04:00 +15°C° 0 mm 2 mps 741 mmHg 91%
05:00 +16°C° 0 mm 2 mps 741 mmHg 88%
06:00 +17°C° 0 mm 3 mps 741 mmHg 84%
07:00 +17°C° 0 mm 3 mps 741 mmHg 80%
08:00 +18°C° 0 mm 3 mps 741 mmHg 76%
09:00 +19°C° 0 mm 3 mps 740 mmHg 71%
10:00 +20°C° 0 mm 3 mps 740 mmHg 67%
11:00 +20°C° 0.3 mm 3 mps 740 mmHg 71%
12:00 +19°C° 0.3 mm 3 mps 740 mmHg 75%
13:00 +18°C° 0.3 mm 3 mps 740 mmHg 80%
14:00 +18°C° 1.1 mm 3 mps 739 mmHg 84%
15:00 +17°C° 1.1 mm 3 mps 739 mmHg 89%
16:00 +16°C° 1.1 mm 3 mps 739 mmHg 93%
17:00 +16°C° 1.1 mm 3 mps 739 mmHg 94%
18:00 +16°C° 1.1 mm 3 mps 738 mmHg 94%
19:00 +16°C° 1.1 mm 3 mps 738 mmHg 95%
20:00 +15°C° 1.7 mm 4 mps 738 mmHg 95%
21:00 +15°C° 1.7 mm 4 mps 737 mmHg 96%
22:00 +15°C° 1.7 mm 4 mps 737 mmHg 96%
23:00 +15°C° 1.8 mm 4 mps 737 mmHg 96%

Pasado mañana, 6 Agosto, Viernes

Tiempo Temperatura Precipitaciones Viento Presión Humedad
00:00 +15°C° 1.8 mm 4 mps 736 mmHg 96%
01:00 +15°C° 1.8 mm 4 mps 736 mmHg 96%
02:00 +15°C° 1.2 mm 4 mps 736 mmHg 96%
03:00 +15°C° 1.2 mm 4 mps 736 mmHg 96%
04:00 +15°C° 1.2 mm 4 mps 736 mmHg 97%
05:00 +15°C° 1.2 mm 4 mps 736 mmHg 96%
06:00 +14°C° 1.2 mm 4 mps 736 mmHg 96%
07:00 +14°C° 1.2 mm 4 mps 736 mmHg 96%
08:00 +15°C° 0.4 mm 4 mps 737 mmHg 95%
09:00 +15°C° 0.4 mm 4 mps 737 mmHg 94%
10:00 +15°C° 0.4 mm 4 mps 737 mmHg 93%
11:00 +15°C° 0.2 mm 4 mps 738 mmHg 89%
12:00 +17°C° 0.2 mm 4 mps 738 mmHg 85%
13:00 +18°C° 0.2 mm 4 mps 738 mmHg 81%
14:00 +18°C° 0 mm 4 mps 738 mmHg 76%
15:00 +18°C° 0 mm 3 mps 738 mmHg 72%
16:00 +19°C° 0 mm 3 mps 738 mmHg 68%
17:00 +18°C° 0 mm 3 mps 738 mmHg 72%
18:00 +17°C° 0 mm 2 mps 738 mmHg 77%
19:00 +16°C° 0 mm 2 mps 739 mmHg 81%
20:00 +16°C° 0 mm 1 mps 739 mmHg 84%
21:00 +15°C° 0 mm 1 mps 739 mmHg 86%
22:00 +13°C° 0 mm 0 mps 739 mmHg 88%
23:00 +14°C° 0 mm 1 mps 739 mmHg 88%

7 Agosto, Sábado

Tiempo Temperatura Precipitaciones Viento Presión Humedad
00:00 +14°C° 0 mm 1 mps 739 mmHg 88%
01:00 +14°C° 0 mm 1 mps 739 mmHg 88%
02:00 +14°C° 0 mm 1 mps 739 mmHg 88%
03:00 +14°C° 0 mm 1 mps 739 mmHg 88%
04:00 +14°C° 0 mm 1 mps 739 mmHg 88%
05:00 +15°C° 0 mm 1 mps 740 mmHg 84%
06:00 +18°C° 0 mm 1 mps 740 mmHg 80%
07:00 +19°C° 0 mm 1 mps 740 mmHg 75%
08:00 +20°C° 0 mm 2 mps 740 mmHg 69%
09:00 +23°C° 0 mm 2 mps 740 mmHg 64%
10:00 +24°C° 0 mm 2 mps 740 mmHg 58%
11:00 +25°C° 0 mm 2 mps 740 mmHg 53%
12:00 +27°C° 0 mm 3 mps 740 mmHg 49%
13:00 +28°C° 0 mm 3 mps 740 mmHg 45%
14:00 +28°C° 0 mm 3 mps 740 mmHg 43%
15:00 +28°C° 0 mm 3 mps 740 mmHg 42%
16:00 +28°C° 0 mm 3 mps 739 mmHg 41%
17:00 +27°C° 0 mm 2 mps 739 mmHg 46%
18:00 +26°C° 0 mm 2 mps 739 mmHg 51%
19:00 +25°C° 0 mm 1 mps 739 mmHg 56%
20:00 +24°C° 0 mm 2 mps 739 mmHg 58%
21:00 +22°C° 0 mm 3 mps 739 mmHg 60%
22:00 +21°C° 0 mm 3 mps 739 mmHg 62%
23:00 +21°C° 0 mm 4 mps 739 mmHg 64%

8 Agosto, Domingo

Tiempo Temperatura Precipitaciones Viento Presión Humedad
00:00 +21°C° 0 mm 4 mps 739 mmHg 66%
01:00 +21°C° 0 mm 4 mps 738 mmHg 68%
02:00 +21°C° 0 mm 4 mps 739 mmHg 68%
03:00 +21°C° 0 mm 4 mps 739 mmHg 68%
04:00 +21°C° 0 mm 3 mps 739 mmHg 68%
05:00 +20°C° 0 mm 4 mps 740 mmHg 74%
06:00 +20°C° 0 mm 4 mps 740 mmHg 79%
07:00 +19°C° 0 mm 4 mps 741 mmHg 84%
08:00 +20°C° 0 mm 5 mps 742 mmHg 77%
09:00 +22°C° 0 mm 5 mps 742 mmHg 69%
10:00 +23°C° 0 mm 5 mps 743 mmHg 62%
11:00 +23°C° 0 mm 5 mps 743 mmHg 58%
12:00 +25°C° 0 mm 4 mps 743 mmHg 53%
13:00 +26°C° 0 mm 4 mps 744 mmHg 49%
14:00 +26°C° 0 mm 4 mps 744 mmHg 48%
15:00 +27°C° 0 mm 3 mps 744 mmHg 46%
16:00 +27°C° 0 mm 3 mps 744 mmHg 45%
17:00 +26°C° 0 mm 2 mps 744 mmHg 49%
18:00 +25°C° 0 mm 2 mps 744 mmHg 53%
19:00 +24°C° 0 mm 1 mps 744 mmHg 57%
20:00 +23°C° 0 mm 1 mps 745 mmHg 58%
21:00 +23°C° 0 mm 1 mps 745 mmHg 59%
22:00 +22°C° 0 mm 1 mps 746 mmHg 60%
23:00 +21°C° 0 mm 1 mps 746 mmHg 62%

9 Agosto, Lunes

Tiempo Temperatura Precipitaciones Viento Presión Humedad
00:00 +20°C° 0 mm 2 mps 746 mmHg 64%
01:00 +19°C° 0 mm 2 mps 746 mmHg 67%
02:00 +19°C° 0 mm 2 mps 746 mmHg 68%
03:00 +18°C° 0 mm 2 mps 746 mmHg 70%
04:00 +17°C° 0 mm 2 mps 747 mmHg 72%
05:00 +18°C° 0 mm 2 mps 747 mmHg 69%
06:00 +19°C° 0 mm 2 mps 747 mmHg 65%
07:00 +21°C° 0 mm 1 mps 747 mmHg 62%
08:00 +22°C° 0 mm 1 mps 747 mmHg 58%
09:00 +24°C° 0 mm 1 mps 747 mmHg 54%
10:00 +25°C° 0 mm 1 mps 748 mmHg 50%
11:00 +26°C° 0 mm 1 mps 747 mmHg 47%
12:00 +27°C° 0 mm 2 mps 747 mmHg 45%
13:00 +28°C° 0 mm 2 mps 747 mmHg 42%
14:00 +28°C° 0 mm 2 mps 747 mmHg 40%
15:00 +28°C° 0 mm 2 mps 746 mmHg 39%
16:00 +28°C° 0 mm 2 mps 746 mmHg 37%
17:00 +27°C° 0 mm 2 mps 746 mmHg 41%
18:00 +26°C° 0 mm 1 mps 746 mmHg 46%
19:00 +24°C° 0 mm 1 mps 746 mmHg 50%
20:00 +23°C° 0 mm 1 mps 746 mmHg 53%
21:00 +22°C° 0 mm 1 mps 746 mmHg 55%
22:00 +20°C° 0 mm 2 mps 746 mmHg 58%
23:00 +20°C° 0 mm 2 mps 746 mmHg 59%
Mostrar más

Necesitamos Su Consentimiento

Meteoprog y nuestros Proveedores de Servicios pueden almacenar y acceder a sus datos personales como cookies, identificadores de dispositivo u otras tecnologías similares de su dispositivo y procesar dichos datos para personalizar contenido y anuncios, además de ofrecer funciones de redes sociales y analizar el tráfico.

  • Almacenar y/o acceder a información en su dispositivo

    Se puede almacenar o acceder a cookies, identificadores de dispositivo u otra información de su dispositivo para los fines anteriormente indicados.

  • Anuncios y contenido personalizados, medición de anuncios y contenido, percepciones del público, y desarrollo de productos

    Los anuncios y el contenido pueden personalizarse en base a su perfil. Se pueden añadir más datos para personalizar mejor los anuncios y contenidos. Se puede medir el rendimiento de los anuncios y contenidos. Se puede obtener la percepción sobre el público que ha visto los anuncios y contenidos. Dichos datos pueden usarse para desarrollar o mejorar la experiencia del usuario, sistemas y software.

Al hacer clic en ‘Estoy De Acuerdo’ usted permitirá el uso de las cookies, identificadores de dispositivo, balizas web u otras tecnologías similares indicadas. Su configuración puede cambiarse desde el navegador de su dispositivo.

Para ciertos fines, los intereses legítimos pueden ser considerados por encima del consentimiento. Puede leer más sobre ello en nuestra Política de Privacidad y Cookies.